{"data":{"norad_id":52350,"intl_designator":"2022-045V","name":"STARLINK-3754","alt_names":[],"object_type":"PAYLOAD","status":"ACTIVE","operator":null,"country":"US","launch_date":"2022-04-29","launch_site_code":"AFETR","launch_vehicle":null,"mission":null,"orbit_class":"UNKNOWN","rcs_meters":null,"size_class":null,"mass_kg":null,"dimensions":null,"purposes":["comms"],"wikipedia_slug":null,"has_3d_model":false,"image_url":null,"decayed_at":null,"tle_current":{"epoch":"2026-09-20T00:08:17.458368Z","epoch_age_seconds":102382,"freshness":"FRESH","line1":"1 52350U 22045V   26263.00575762  .00000740  00000+0  33075-4 0  9991","line2":"2 52350  53.1614  31.7077 0001561  81.5638 278.5542 15.34378550245326","mean_motion":15.3437855,"eccentricity":0.0001561,"inclination_deg":53.1614,"raan_deg":31.7077,"arg_perigee_deg":81.5638,"mean_anomaly_deg":278.5542,"bstar":3.3075e-5,"rev_number":24532,"period_min":93.849070035553,"perigee_km":461.6991297566,"apogee_km":463.8348599838,"semimajor_km":6840.9039948702,"source":"CELESTRAK","updated_at":"2026-09-20T09:00:40.024803Z"}}}